Location: La V�bora
(27.2615°N, 113.3816°W)
Time: 07:14:36
(UTC+00:00)

Daily predictions for brighter satellites

Satellite Brightness Start Highest point End
(mag) Time Altitude Azimuth Time Altitude Azimuth Time Altitude Azimuth
NOSS 2-2 (D) 3.0 12:03:30 17° SW 12:06:13 68° WNW 12:09:45 10° NNE
H-2A R/B 3.0 12:04:14 15° SW 12:06:35 25° W 12:09:59 10° NW
FENGYUN 3A 4.0 12:01:14 10° NNE 12:06:35 67° E 12:11:55 10° S
NOSS 2-2 (E) 3.5 12:04:46 20° SW 12:06:59 45° WNW 12:10:26 10° NNE
USA 267 3.5 12:05:29 10° SE 12:12:00 78° NE 12:18:32 10° NW
FALCON 9 DEB 3.4 12:11:12 10° NW 12:14:38 72° NE 12:18:03 10° SE
Meteor 1-31 Rocket 2.7 12:17:13 10° N 12:21:03 74° WNW 12:24:50 10° SSW
Cosmos 1825 Rocket 4.4 12:19:01 10° NNW 12:22:41 28° W 12:26:21 10° SSW
Cosmos 1484 Rocket 2.7 12:21:32 10° N 12:25:11 57° WNW 12:28:50 10° SSW
Atlas Centaur 2 3.1 12:19:08 11° W 12:26:39 83° NNW 12:35:15 10° ENE
Cosmos 2278 Rocket 4.0 12:22:00 10° SSE 12:26:59 32° ESE 12:31:58 10° NE
Cosmos 1953 Rocket 4.1 12:25:37 10° NNW 12:29:46 38° W 12:33:52 10° SSW
Cosmos 494 Rocket 4.0 12:25:27 10° NNW 12:30:37 82° WSW 12:35:49 10° S
Cosmos 1709 Rocket 3.9 12:27:31 10° N 12:33:40 77° W 12:39:44 10° S
CZ-4B R/B 2.0 12:31:06 10° SSW 12:34:11 34° W 12:37:13 10° NNW
Hubble Space Telescope 1.0 12:30:25 10° WSW 12:34:29 61° SSE 12:38:34 10° E
Cosmos 2315 Rocket 4.3 12:29:16 10° SSW 12:35:19 50° W 12:41:27 10° N
Cosmos 1400 Rocket 4.1 12:31:42 10° SSE 12:35:29 45° E 12:39:13 10° NNE
ERS-2 4.1 12:35:51 10° WSW 12:36:34 10° W 12:37:18 10° W
Delta 7925 Rocket 4.0 12:33:27 10° WSW 12:40:08 64° S 12:45:23 10° E
